Карточка аэропорта UAAT

Внимание!
Информация на этой странице в стадии наполнения.
Если вы не увидели какой-то информации, или заметили неточность - пожалуйста сообщите нам!
Спасибо!
Команда RU-STAFF
Название аэропортаТалдыкорган
Название аэропорта (англ.)Taldykorgan
Превышение1946 ft. (593.1 m.)
Координаты45°6.9179999999999', 78°26.46'
Высота перехода10000ft
Эшелон переходаFL120
Коды ответчика3501-3517, 3401-3427
Зона ОрВДАлматы РПИ (UAAA)
Данные METARUAAT 271100Z 02005MPS 7000 NSC M05/M09 Q1027 NOSIG RMK QFE718/0958
Проноз погоды (TAF)NODATA
NOTAMshow/hide NOTAM
AWOS   TABLE

Информация о ВПП


Диспетчерские позиции

Позывной Наименование органа УВД Частота
UAAT_TWRТалдыкорган-Вышка127.3



Спутниковое изображение